Regional Weather Roundup
Issued by NWS Wakefield, VA

Home | Current Version | Previous Version | Text Only | Print | Product List | Glossary On
Versions: 1 2 3 4 5 6 7 8 9 10 11 12 13 14 15 16 17 18 19 20 21 22 23 24 25 26 27 28
000
ASUS41 KAKQ 270715
RWRAKQ

REGIONAL WEATHER ROUNDUP
NATIONAL WEATHER SERVICE WAKEFIELD VA
300 AM EDT WED JUL 27 2016

Note: "fair" indicates few or no clouds below 12,000 feet with no
significant weather and/or obstructions to visibility. * = Denotes
station may not report precipitation (e.g., rain,snow,etc.),
thunder or fog.

VAZ042-051-052>054-056-270800-
NORTHERN VIRGINIA

CITY           SKY/WX    TMP DP  RH WIND       PRES   REMARKS
WASH NATIONAL  CLOUDY    82  72  71 W7        29.94S
DULLES         CLOUDY    78  71  79 CALM      29.94F
FORT BELVOIR   FAIR      79  71  75 NW3       29.93F
QUANTICO       FAIR      78  71  79 N5        29.94S
FREDERICKSBRG* FAIR      75  75 100 SW3       29.94S
STAFFORD*      FAIR      74  70  87 CALM      29.98F
WARRENTON      MOCLDY    75  70  84 CALM      29.94F
CULPEPER*      CLOUDY    76  74  95 CALM      29.96F
MANASSAS*      FAIR      75  75 100 CALM      29.94F
LEESBURG*      FAIR      79  77  94 W9        29.96S
WINCHESTER     FAIR      77  70  78 W5        29.98S
FRONT ROYAL*   FAIR      73  72  94 CALM      29.97S
LURAY*         FAIR     N/A N/A N/A SW5       30.00F
$$

VAZ048-049-060>072-079>083-270800-
CENTRAL AND SOUTH CENTRAL VIRGINIA

CITY           SKY/WX    TMP DP  RH WIND       PRES   REMARKS
RICHMOND       CLOUDY    74  72  93 NW6       29.95S
CHESTERFIELD*  FAIR      73  61  64 CALM      29.96F
PETERSBURG*    FAIR     N/A N/A N/A CALM      29.96R
HANOVER        FAIR      73  70  90 CALM      29.96F
TAPPAHANNOCK*  FAIR      76  76 100 W6        29.96R
QUINTON*       FAIR      75  74  99 CALM      29.95R
CHARLOTTSVILLE FAIR      76  73  91 CALM      29.97S
GORDONSVILLE*  FAIR      77  73  86 CALM      29.95F
ORANGE*          N/A     75  75 100 CALM      29.97F
LOUISA*        FAIR      77  75  94 CALM      29.95S
BUMPASS*       FAIR      72  72 100 CALM      29.95F
FARMVILLE*     FAIR     N/A N/A N/A W5        29.95F
CREWE*         FAIR      74  74 100 NW3       29.95S
FORT PICKETT*  FAIR      72  71  98 CALM      29.95F
CHASE CITY*    FAIR      73  71  95 CALM      29.96F
CLARKSVILLE*   PTSUNNY   73  73 100 CALM      29.95F
SOUTH HILL*    FAIR      73  73 100 CALM      30.02R
LAWRENCEVILLE* FAIR      74  74 100 CALM      29.95S
EMPORIA*         N/A     73  72  94 CALM      29.96F
$$

VAZ088>098-270800-
SOUTHEAST VIRGINIA

CITY           SKY/WX    TMP DP  RH WIND       PRES   REMARKS
NORFOLK        LGT RAIN  81  73  76 CALM      29.93S
VIRGINIA BEACH CLOUDY    84  73  69 W6        29.93S
NORFOLK NAVAL  MOCLDY    81  74  79 W7        29.95R
WEST POINT*    CLOUDY    78  76  96 W3        29.95R
SALUDA*        PTSUNNY   79  79 100 CALM      29.92F
NEWPORT NEWS   LGT RAIN  78  76  93 SW3       29.94R
LANGLEY AFB    FAIR      79  75  88 NW3       29.94S
FORT EUSTIS    FAIR      79  77  94 W3        29.92F
WILLIAMSBURG*  FAIR      81  79  94 SW6       29.95F
HR EXEC AP*    FAIR      75  72  88 CALM      29.95S
FRANKLIN*      LGT RAIN  76  73  91 CALM      29.94F
US460-WAKEFLD  LGT RAIN  76  74  93 W3        29.96R FOG
$$

VAZ020-022-025-037-045-270800-
WEST CENTRAL AND SOUTHWEST VIRGINIA

CITY           SKY/WX    TMP DP  RH WIND       PRES   REMARKS
STAUNTON*      FAIR      71  71  99 CALM      30.03F FOG
WAYNESBORO*    FAIR      72  70  96 CALM      30.03F
HOT SPRINGS VA FOG       70  70 100 W7        30.15F VSB 3/4
LYNCHBURG      FAIR      71  70  96 CALM      30.01F
DANVILLE       FAIR      73  72  96 CALM      29.98F
SOUTH BOSTON*  FAIR      73  71  95 NW3       29.97F
MARTINSVILLE   FAIR      73  71  94 CALM      30.03F
ROANOKE        FAIR      75  72  90 CALM      30.03F
BLACKSBURG     FAIR      72  71  97 CALM      30.11F
DUBLIN*        CLOUDY    74  72  92 CALM      30.10S
MARION*        CLOUDY    72  70  94 W3        30.13F
HILLSVILLE*    CLOUDY    74  71  92 CALM      30.11S
RICHLANDS*     FAIR      72  72 100 CALM      30.11F
WISE*          FAIR      73  68  83 CALM      30.12F
ABINGDON*      FAIR      74  71  90 CALM      30.08F
$$

MDZ021>025-VAZ099-100-270800-
SOUTHERN MARYLAND AND THE DELMARVA PENINSULA

CITY           SKY/WX    TMP DP  RH WIND       PRES   REMARKS
PATUXENT RIVER PTCLDY    80  76  87 W6        29.92R
BAY BRIDGE APT CLOUDY    82  75  78 W5        29.91S
LEONARDTOWN      N/A    N/A N/A N/A MISG        N/A
DOVER          MOCLDY    80  80 100 S5        29.90F
GEORGETOWN     CLOUDY    76  74  93 CALM      29.93S
EASTON         CLOUDY    83  82  97 CALM      29.95S HX  97
CAMBRIDGE      PTCLDY    77  77 100 CALM      29.92
SALISBURY      CLOUDY    76  74  93 CALM      29.92R
OCEAN CITY     PTCLDY    76  74  93 CALM      29.93R
WALLOPS ISLAND FAIR      79  77  94 CALM      29.93R
ACCOMACK*      MOCLDY    81  77  89 CALM      29.93R
$$

NCZ012>017-030>032-270800-
NORTH CENTRAL AND EASTERN NORTH CAROLINA

CITY           SKY/WX    TMP DP  RH WIND       PRES   REMARKS
ROANOKE RAPIDS FAIR      73  72  94 SW6       29.94F
RALEIGH        CLOUDY    78  75  90 CALM      29.98F
ELIZABETH CITY CLOUDY    77  75  93 SW3       29.93F
AHOSKIE*       LGT RAIN  73  72  96 S3        29.92F
EDENTON*       CLOUDY    82  82 100 CALM      29.96F
CURRITUCK*     CLOUDY    78  78  99 CALM      29.94F
KILL DEVIL HLS NOT AVBL
MANTEO           N/A     81  78  92 W8        29.95S
CAPE HATTERAS  CLOUDY    82  77  84 W9        29.97R
TARBORO*       FAIR      78  74  87 CALM      29.97F
GOLDSBORO      MOCLDY    81  80  98 S5        29.94F
WASHINGTON     CLOUDY    79  74  85 CALM      29.97F
GREENVILLE     MOCLDY    81  79  94 CALM      30.00R
NEW BERN       CLOUDY    78  73  84 SW5       29.98F
WILMINGTON     CLEAR     80  75  84 SW9       29.99S
$$

VAZ048-270800-
ELSEWHERE

CITY           SKY/WX    TMP DP  RH WIND       PRES   REMARKS
HARRISBURG PA  CLOUDY    77  65  66 NW7       29.93S
BALTIMORE      CLOUDY    80  71  74 W8        29.92S
ANNAPOLIS      CLOUDY    83  73  72 W3        29.91S
ANDREWS AFB    MOCLDY    80  73  78 W5        29.93S
PHILADELPHIA   CLOUDY    79  67  66 NE6       29.93S
GREENSBORO     CLOUDY    79  75  87 CALM      29.99F
ROCKY MOUNT    MOCLDY    79  76  90 CALM      29.97F
$$

VAZ100-270800-
MARINE

STATION/POSITION TIME  TEMP    WIND        PRES    WAVE   SWELL
                       AIR SEA DIR/SP/G            HT/PER HT/PER
                 (UTC) (F)     (DEG/KT/KT) (MB)    (FT/S) (FT/S)
BRANDYWINE LGT   0600   80     250/ 10/ 11   N/A
CAPE MAY NJ      0600   77 73  200/  4/  5 1012.6F
LEWES DE         0600   79 74  250/  4/  6 1013.0F
OCEAN-CITY-INLET 0600   77 73     CALM     1013.4F
WACHAPREAGUE VA  0600   80 86  240/  1/  2 1012.8F
THOMAS POINT MD  0700   83 84  260/  8/  9 1014.4R
GOOSES REEF MD   0700   83 85  290/ 10/ 12 1014.2R   1/ 3
COVE POINT MD    0600   82     290/  9/ 11 1013.4F
SOLOMONS ISLAND  0600   82 86  290/  5/  7   N/A
BISHOPS HEAD MD  0600   84     280/  9/ 11 1013.3F
PINEY POINT MD   0600          330/ 13/ 14   N/A
POTOMAC MD       0700   83 86  290/ 12/ 14 1012.3R   1/ 2
CAMBRIDGE MD     0600   83 87  230/  1/  3 1012.1F
LEWISETTA VA     0600   81 88  340/  6/  8 1012.7F
RAPPAHANNOCK LGT 0600          270/  7/  8 1013.7F
STINGRAY PT      0700   82 86  260/  6/  8 1013.5R   1
YORK RVR RNG VA  0600   81     280/  3/  4 1013.1R
YORKTOWN VA      0600   81 84   CALM  /  3 1013.4R
JAMESTOWN VA     0700   80 89  240/  8/ 10   N/A
DOMINION TERM VA 0600   81     230/ 10/ 12 1013.1F
KIPTOPEKE VA     0600      83  260/  7/  8   N/A
CHES BAY BRIDGE  0600   81 75  180/  7/  9 1013.2F
CAPE HENRY VA    0600   80     220/  6/  9   N/A
WILLOUBY STN VA  0600   82     220/ 13/ 15   N/A
CAPE HENRY BUOY  0612      73                N/A     2/ 6
1ST LANDING BUOY 0700   80 79  320/  8/  8 1013.5R
CAPE CHARLES BUO 0626      75                N/A     2/ 6
OFFSHORE WE BUOY 0621      82                N/A     2/ 6
64NM E OF VA BCH 0650   82 80  250/ 12/ 16 1013.7R   3/ 6   3/ 6
DUCK PIER NC     0600   84 64  230/ 12/ 15 1013.2F
44100 DUCK FRF   0605      77                N/A     2/ 6
44056 DUCK FRF   0611      69                N/A     1/ 8
OREGON INLET NC  0600   84 84  230/ 12/ 15 1013.8F
HATTERAS NC      0600   81 83  230/  9/ 12 1014.1F
DIAMOND SHLS NC  0650   84 85  250/ 17/ 21 1014.5R   5/ 6
CAPE LOOKOUT NC  0700   83     250/ 12/ 15 1014.8F
$$




USA.gov is the U.S. government's official web portal to all federal, state and local government web resources and services.